Flag for U.S.A. Weather past 2 weeks in Abilene, Texas, U.S.A.

Now
42 °F

Clear.


Feels Like: 35 °F
Forecast: 37 / 60 °F
Wind: 15 mph from Southwest

Location: Abilene Regional Airport

Current Time: Dec 29, 2014 at 5:48:44 AM

Latest Report: Dec 29, 2014 at 4:52 AM


Visibility: 10 mi

Pressure: 30.00 "Hg

Humidity: 68%

Dew point: 32 °F

Location of AbileneLocation

Historic Weather in Abilene — Graph

°F

Abilene temperature yesterday

Maximum temperature yesterday: 52 °F (at 3:52 PM)
Minimum temperature yesterday: 30 °F (at 6:52 AM)
Average temperature yesterday: 39 °F

Past Weeks' High & Low Weather Summary

 TemperatureHumidityPressure
High73 °F (Dec 14, 1:52 PM)100% (Dec 23, 4:52 AM)30.41 "Hg (Dec 23, 4:52 AM)
Low30 °F (Dec 28, 6:52 AM)21% (Dec 14, 2:52 PM)29.57 "Hg (Dec 22, 4:52 AM)
Average48 °F62%30.01 "Hg
* Reported Dec 14 3:52 AM — Dec 29 3:52 AM, Abilene, Weather by CustomWeather, © 2014

Note: Actual official high and low records may vary slightly from our data, if they occured in-between our weather recording intervals... More about our weather records

Advertising

Abilene weather history for previous 24 hours

 ConditionsComfort  
Time TempWeatherWind HumidityBarometerVisibility
3:52 AM
Dec 29
41 °FClear.13 mph67%30.01 "Hg10 mi
2:52 AM41 °FClear.9 mph67%30.03 "Hg10 mi
1:52 AM39 °FClear.8 mph70%30.03 "Hg10 mi
12:52 AM37 °FClear.8 mph70%30.05 "Hg10 mi
11:52 PM
Dec 28
37 °FClear.7 mph67%30.06 "Hg10 mi
10:52 PM38 °FClear.10 mph65%30.06 "Hg10 mi
9:52 PM39 °FClear.8 mph57%30.08 "Hg10 mi
8:52 PM38 °FClear.9 mph63%30.08 "Hg10 mi
7:52 PM38 °FClear.8 mph65%30.09 "Hg10 mi
6:52 PM42 °FClear.9 mph55%30.08 "Hg10 mi
5:52 PM46 °FClear.9 mph46%30.07 "Hg10 mi
4:52 PM50 °FSunny.12 mph36%30.08 "Hg10 mi
3:52 PM52 °FSunny.14 mph34%30.09 "Hg10 mi
2:52 PM51 °FSunny.13 mph33%30.10 "Hg10 mi
1:52 PM49 °FSunny.10 mph38%30.13 "Hg10 mi
12:52 PM46 °FSunny.9 mph40%30.19 "Hg10 mi
11:52 AM44 °FSunny.7 mph43%30.24 "Hg10 mi
10:52 AM41 °FSunny.6 mph47%30.29 "Hg10 mi
9:52 AM38 °FSunny.5 mph60%30.30 "Hg10 mi
8:52 AM33 °FSunny.5 mph82%30.30 "Hg10 mi
7:52 AM30 °FSunny.5 mph85%30.29 "Hg10 mi
6:52 AM30 °FClear.6 mph89%30.29 "Hg10 mi
5:52 AM32 °FPassing clouds.6 mph82%30.26 "Hg10 mi
Weather by CustomWeather, © 2014

See weather overviewHow to use our weather pages